Location: Fort Worth, Tx
(32.7431°N, 97.3695°W)
Time: 20:33:59
(UTC-04:00)

Vanguard 1 Rocket - Pass Details

Date: 17 September 2024
Orbit: 650 x 4218 km, 34.3° (Epoch: 11 October)

Event Time Altitude Azimuth Distance (km) Brightness Sun altitude
Exits shadow 03:56:36 43° 115° (ESE) 3,162 9.9 -48.9°
Drops below altitude 10° 04:11:20 10° 74° (ENE) 6,536 12.1 -47.0°
Sets 04:17:42 0° 70° (ENE) 7,987 12.8 -46.1°
